Find Starlink 31845

NORAD ID: 60129 Int'l Des: 2024-118 Owner: SPXS Country: US Constellation: starlink operational
LEOCIRCULAR

Current View

Loading 3D Globe...

About Starlink 31845

Starlink 31845 (NORAD 60129) is a starlink constellation satellite (v2 mini) launched Jun 24, 2024 by SPXS of US. It operates in LEO, CIRCULAR orbit with a mass of 730.00 kg.

Upcoming Passes

Passes for default location (London). Set your location on the main map for personalized predictions.

Altitude History

Loading altitude history...

Two-Line Element Set

1 60129U 24118S 26265.20217247 .00000119 00000-0 14653-4 0 9994
2 60129 53.1599 189.6525 0001369 72.3688 287.7464 15.34394508125841
Epoch: Sep 22, 2026 • Age: 20 hours

Current Status

Altitude 481.8 km
Apogee / Perigee N/A
Velocity 7.62 km/s
Sub-Earth Point -52.60°S, 94.61°E
Launch Date Jun 24, 2024
Age 2.2 years
Type internet

Technical Details

Classification Payload
Mass 730.00 kg
Dry Mass 700.00 kg
Length 0.30 m
Span 29.00 m
Shape ? Box + pan
Manufacturer SPXS
Bus Type Starlink V2M
Phase Status In Orbit
Owner/State SPXS/US

Most Searched